Regional Weather Roundup
Issued by NWS

Home | Current Version | Previous Version | Graphics & Text | Print | Product List | Glossary On
Versions: 1 2 3 4 5 6 7 8 9 10 11 12 13 14 15 16 17 18 19 20 21 22 23 24 25 26 27 28 29 30 31 32 33 34 35 36 37 38 39 40 41 42 43 44 45 46 47 48 49 50
000
ASUS43 KLOT 020000
RWRIL

ILLINOIS REGIONAL WEATHER ROUNDUP
NATIONAL WEATHER SERVICE CHICAGO/ROMEOVILLE IL
700 PM CDT SAT AUG 01 2015

NOTE: "FAIR" INDICATES FEW OR NO CLOUDS BELOW 12,000 FEET WITH NO
SIGNIFICANT WEATHER AND/OR OBSTRUCTIONS TO VISIBILITY.

* THESE STATIONS ARE NOT UNDER NWS QUALITY CONTROL. THEY ALSO MAY NOT
  REPORT WEATHER SUCH AS PRECIPITATION OR FOG.

ILZ001-002-007-009-015-016-024-020100-
NORTHWEST ILLINOIS

CITY           SKY/WX    TMP DP  RH WIND       PRES   REMARKS
MOLINE         PTSUNNY   82  68  62 SW6       29.92F HX  85
6HR MIN TEMP:  82; 6HR MAX TEMP:  87;

STERLING*      CLOUDY    81  66  61 W8        29.89S HX  83
$$

ILZ003-004-008-010-011-017-018-020100-
NORTH CENTRAL ILLINOIS

CITY           SKY/WX    TMP DP  RH WIND       PRES   REMARKS
ROCKFORD       PTSUNNY   81  64  56 W12       29.91F HX  82
6HR MIN TEMP:  81; 6HR MAX TEMP:  87;

$$

ILZ005-006-012>014-019>023-020100-
NORTHEAST ILLINOIS

CITY           SKY/WX    TMP DP  RH WIND       PRES   REMARKS
CHICAGO-OHARE  PTSUNNY   83  61  47 SW16      29.89F HX  83
6HR MIN TEMP:  82; 6HR MAX TEMP:  87;

CHICAGO-MIDWAY PTSUNNY   85  59  41 W14       29.89F HX  84
6HR MIN TEMP:  85; 6HR MAX TEMP:  89;

AURORA         MOSUNNY   80  62  54 SW9       29.91F HX  81
6HR MIN TEMP:  80; 6HR MAX TEMP:  86;

WAUKEGAN       MOSUNNY   82  63  52 SW6       29.86F HX  83
6HR MIN TEMP:  80; 6HR MAX TEMP:  85;

DUPAGE AIRPORT MOSUNNY   82  62  50 SW13      29.90F HX  83
6HR MIN TEMP:  82; 6HR MAX TEMP:  86;

WHEELING       MOSUNNY   84  59  42 W14       29.89F HX  84
6HR MIN TEMP:  83; 6HR MAX TEMP:  87;

NORTHERLY ISL    N/A     84  58  40 W7          N/A  HX  83
$$

LMZ740>746-020100-
SOUTHERN LAKE MICHIGAN

STATION/POSITION SKY/WX   TEMP    WIND        PRES    VSBY  WAVE
                          AIR SEA DIR/SP/G                  HT/PER
                          (F)     (DEG/KT/KT) (MB)    (MI)  (FT/S)
HARRISON CRIB              82     260/ 21/ 24   N/A
BURNHAM HARBOR             84     280/ 10/ 16   N/A
CALUMET HARBOR             84     240/  5/ 14   N/A
BURNS HARBOR               81     260/ 16/ 19 1012.9F
MICHIGAN CITY              78      30/  1/  2   N/A
MICHIGAN CITY 6N           77 76  110/  4/  6   N/A           1
ST. JOSEPH                 78 76  170/  2/  2   N/A           1/ 4
$$

ILZ025>027-034>036-040-047-049-050-058-095>099-020100-
WEST-CENTRAL ILLINOIS

CITY           SKY/WX    TMP DP  RH WIND       PRES   REMARKS
QUINCY         SUNNY     84  71  65 S5        29.96F HX  89
MACOMB*        MOSUNNY   83  69  63 SW6       29.98S HX  86
$$

ILZ028>032-037-038-041>044-048-051>054-059>061-020100-
CENTRAL ILLINOIS

CITY           SKY/WX    TMP DP  RH WIND       PRES   REMARKS
DECATUR        SUNNY     83  62  49 SW10      29.98S HX  84
PEORIA         MOSUNNY   84  64  50 SW8       29.95F HX  85
6HR MIN TEMP:  83; 6HR MAX TEMP:  89;

SPRINGFIELD    SUNNY     84  63  49 SW7       29.97F HX  85
6HR MIN TEMP:  84; 6HR MAX TEMP:  88;

TAYLORVILLE    NOT AVBL
$$

ILZ033-039-045-046-055>057-062-063-020100-
EAST-CENTRAL ILLINOIS

CITY           SKY/WX    TMP DP  RH WIND       PRES   REMARKS
CHAMPAIGN      SUNNY     81  66  60 SW6       29.97F HX  83
MATTOON        SUNNY     81  61  50 SW6       29.97F HX  82
$$

ILZ079-100>102-020100-
SOUTHWEST ILLINOIS

CITY           SKY/WX    TMP DP  RH WIND       PRES   REMARKS
CAHOKIA*       PTSUNNY   86  69  56 SE6       29.96F HX  90
$$

ILZ064>066-069>071-074>076-080>082-084>086-088>090-092>094-020100-
SOUTH-CENTRAL ILLINOIS

CITY           SKY/WX    TMP DP  RH WIND       PRES   REMARKS
CARBONDALE     PTSUNNY   83  70  64 CALM      29.98S HX  87
6HR MIN TEMP:  83; 6HR MAX TEMP:  89;

MT. VERNON     SUNNY     88  63  42 SE5       29.98F HX  88
SALEM*         SUNNY     85  61  44 CALM      29.99S HX  85
$$

ILZ067-068-072-073-078-083-087-091-020100-
SOUTHEAST ILLINOIS

CITY           SKY/WX    TMP DP  RH WIND       PRES   REMARKS
LAWRENCEVILLE  SUNNY     83  58  42 W3        29.98F HX  83
HARRISBURG*    MOSUNNY   84  63  48 CALM      29.99F HX  84
$$

ABBREVIATIONS USED IN REMARKS
   TC - TEMPERATURE IN CELSIUS
  WCI - WIND CHILL INDEX
   HX - HEAT INDEX
  VSB - VISIBILITY
$$




USA.gov is the U.S. government's official web portal to all federal, state and local government web resources and services.